Voltar ao catálogo

CZ-6A DEB

AtivoPO
NORAD 60876·DEBRIS·🇨🇳 China

Lançado Aug 6, 2024 de Taiyuan Satellite Launch Center

Loading…

Próximas Passagens (próximas 24 horas)

TLE

AtualizadoSource: Space-Track

Época: Sep 13, 2026, 13:37 UTC

1 60876U 24140KF  26256.56746860  .00000969  00000-0  44529-3 0  9992
2 60876  89.0260 267.6497 0054710 256.3485 103.1609 14.19727592107471

Acompanhe CZ-6A DEB em tempo real com AllMySat

Download on the App Store